| time (UTC) | temp F | wind direction | speed MPH | gust MPH | rain 1hr in | rain 24hr in | rain mn in | humidity % | barometer mb |
| 20260510201504 | 62 | 360 | 3.0 | 11.0 | 0.00 | 0.01 | 0.01 | 45 | 1026.7 |
| 20260510201004 | 62 | 360 | 6.0 | 11.0 | 0.00 | 0.01 | 0.01 | 46 | 1026.7 |
| 20260510200505 | 61 | 360 | 3.0 | 14.0 | 0.00 | 0.01 | 0.01 | 46 | 1026.7 |
| 20260510200005 | 62 | 360 | 9.0 | 14.0 | 0.00 | 0.01 | 0.01 | 46 | 1026.8 |
| 20260510195504 | 62 | 360 | 3.0 | 10.0 | 0.00 | 0.01 | 0.01 | 44 | 1026.8 |
| 20260510195005 | 62 | 360 | 2.0 | 7.0 | 0.00 | 0.01 | 0.01 | 46 | 1026.8 |
| 20260510194503 | 62 | 360 | 1.0 | 10.0 | 0.00 | 0.01 | 0.01 | 46 | 1026.9 |
| 20260510194007 | 62 | 147 | 6.0 | 10.0 | 0.00 | 0.01 | 0.01 | 46 | 1027.0 |
| 20260510193504 | 61 | 151 | 5.0 | 12.0 | 0.00 | 0.01 | 0.01 | 47 | 1027.0 |
| 20260510193003 | 61 | 147 | 6.0 | 12.0 | 0.00 | 0.01 | 0.01 | 46 | 1027.0 |
| 20260510192503 | 61 | 151 | 3.0 | 12.0 | 0.00 | 0.01 | 0.01 | 46 | 1026.9 |
| 20260510192006 | 61 | 80 | 3.0 | 13.0 | 0.00 | 0.01 | 0.01 | 47 | 1026.9 |
| 20260510191507 | 61 | 154 | 9.0 | 13.0 | 0.00 | 0.01 | 0.01 | 48 | 1027.0 |
| 20260510191002 | 61 | 120 | 2.0 | 9.0 | 0.00 | 0.01 | 0.01 | 48 | 1027.0 |
| 20260510190508 | 60 | 142 | 3.0 | 9.0 | 0.00 | 0.01 | 0.01 | 49 | 1027.0 |
| 20260510190006 | 60 | 107 | 5.0 | 11.0 | 0.00 | 0.01 | 0.01 | 48 | 1027.0 |
| 20260510185506 | 60 | 54 | 4.0 | 12.0 | 0.00 | 0.01 | 0.01 | 48 | 1027.1 |
| 20260510185006 | 60 | 119 | 9.0 | 12.0 | 0.00 | 0.01 | 0.01 | 49 | 1027.1 |
| 20260510184506 | 60 | 119 | 2.0 | 12.0 | 0.00 | 0.01 | 0.01 | 49 | 1027.1 |
| 20260510184010 | 60 | 98 | 6.0 | 12.0 | 0.00 | 0.01 | 0.01 | 48 | 1027.0 |
| 20260510183504 | 60 | 140 | 5.0 | 10.0 | 0.00 | 0.01 | 0.01 | 51 | 1027.0 |
| 20260510183008 | 59 | 138 | 6.0 | 10.0 | 0.00 | 0.01 | 0.01 | 52 | 1027.0 |
| 20260510182508 | 58 | 143 | 2.0 | 8.0 | 0.00 | 0.01 | 0.01 | 51 | 1027.2 |
| 20260510182008 | 58 | 133 | 5.0 | 8.0 | 0.00 | 0.01 | 0.01 | 51 | 1027.2 |
| 20260510181509 | 58 | 53 | 1.0 | 10.0 | 0.00 | 0.01 | 0.01 | 51 | 1027.3 |
| 20260510181007 | 58 | 93 | 5.0 | 10.0 | 0.00 | 0.01 | 0.01 | 51 | 1027.3 |
| 20260510180507 | 58 | 30 | 3.0 | 12.0 | 0.00 | 0.01 | 0.01 | 53 | 1027.2 |
| 20260510180014 | 58 | 156 | 2.0 | 12.0 | 0.00 | 0.01 | 0.01 | 52 | 1027.3 |
| 20260510175507 | 58 | 113 | 7.0 | 12.0 | 0.00 | 0.01 | 0.01 | 53 | 1027.2 |
| 20260510175003 | 58 | 79 | 4.0 | 10.0 | 0.00 | 0.01 | 0.01 | 52 | 1027.2 |
| 20260510174512 | 58 | 139 | 6.0 | 11.0 | 0.00 | 0.01 | 0.01 | 54 | 1027.3 |
| 20260510174007 | 57 | 360 | 3.0 | 11.0 | 0.00 | 0.01 | 0.01 | 53 | 1027.2 |
| 20260510173503 | 58 | 360 | 5.0 | 13.0 | 0.00 | 0.01 | 0.01 | 54 | 1027.3 |
| 20260510173008 | 58 | 360 | 4.0 | 13.0 | 0.00 | 0.01 | 0.01 | 53 | 1027.3 |
| 20260510172507 | 58 | 360 | 5.0 | 13.0 | 0.00 | 0.01 | 0.01 | 55 | 1027.2 |
| 20260510172005 | 58 | 360 | 5.0 | 13.0 | 0.00 | 0.01 | 0.01 | 53 | 1027.3 |
| 20260510171516 | 58 | 360 | 5.0 | 15.0 | 0.00 | 0.01 | 0.01 | 53 | 1027.4 |
| 20260510171003 | 58 | 360 | 5.0 | 15.0 | 0.00 | 0.01 | 0.01 | 51 | 1027.6 |
| 20260510170503 | 60 | 360 | 9.0 | 15.0 | 0.00 | 0.01 | 0.01 | 52 | 1027.5 |
| 20260510170013 | 59 | 360 | 9.0 | 15.0 | 0.00 | 0.01 | 0.01 | 53 | 1027.6 |
| 20260510165508 | 59 | 159 | 6.0 | 16.0 | 0.00 | 0.01 | 0.01 | 55 | 1027.6 |
| 20260510165004 | 57 | 150 | 8.0 | 16.0 | 0.00 | 0.01 | 0.01 | 58 | 1027.6 |
| 20260510164510 | 57 | 149 | 7.0 | 14.0 | 0.00 | 0.01 | 0.01 | 55 | 1027.4 |
| 20260510164014 | 58 | 168 | 8.0 | 15.0 | 0.00 | 0.01 | 0.01 | 56 | 1027.4 |
| 20260510163506 | 58 | 154 | 8.0 | 17.0 | 0.00 | 0.01 | 0.01 | 59 | 1027.3 |
| 20260510163009 | 57 | 164 | 7.0 | 17.0 | 0.00 | 0.01 | 0.01 | 61 | 1027.3 |
| 20260510162503 | 56 | 143 | 10.0 | 15.0 | 0.00 | 0.01 | 0.01 | 63 | 1027.3 |
| 20260510162003 | 56 | 140 | 10.0 | 15.0 | 0.00 | 0.01 | 0.01 | 62 | 1027.3 |
| 20260510161512 | 56 | 153 | 10.0 | 16.0 | 0.00 | 0.01 | 0.01 | 64 | 1027.2 |
| 20260510161008 | 55 | 152 | 10.0 | 20.0 | 0.00 | 0.01 | 0.01 | 65 | 1027.1 |
| 20260510160507 | 55 | 153 | 13.0 | 20.0 | 0.00 | 0.01 | 0.01 | 64 | 1027.0 |
| 20260510160018 | 54 | 175 | 10.0 | 17.0 | 0.00 | 0.01 | 0.01 | 67 | 1027.1 |
| 20260510155512 | 54 | 360 | 11.0 | 16.0 | 0.00 | 0.01 | 0.01 | 68 | 1027.0 |
| 20260510155007 | 53 | 360 | 11.0 | 18.0 | 0.00 | 0.01 | 0.01 | 69 | 1027.0 |
| 20260510154531 | 52 | 360 | 13.0 | 18.0 | 0.00 | 0.01 | 0.01 | 71 | 1027.1 |
| 20260510154008 | 52 | 360 | 9.0 | 18.0 | 0.00 | 0.01 | 0.01 | 72 | 1027.3 |
| 20260510153509 | 51 | 360 | 11.0 | 17.0 | 0.00 | 0.01 | 0.01 | 73 | 1027.3 |
| 20260510153009 | 51 | 360 | 10.0 | 16.0 | 0.00 | 0.01 | 0.01 | 74 | 1027.3 |
| 20260510152510 | 51 | 360 | 9.0 | 14.0 | 0.00 | 0.01 | 0.01 | 74 | 1027.3 |
| 20260510152007 | 50 | 360 | 9.0 | 14.0 | 0.00 | 0.01 | 0.01 | 74 | 1027.2 |
| 20260510151518 | 51 | 360 | 10.0 | 14.0 | 0.00 | 0.01 | 0.01 | 74 | 1027.2 |
| 20260510151007 | 50 | 360 | 9.0 | 13.0 | 0.00 | 0.01 | 0.01 | 75 | 1027.2 |
| 20260510150506 | 50 | 360 | 5.0 | 13.0 | 0.00 | 0.01 | 0.01 | 77 | 1027.2 |
| 20260510150017 | 49 | 360 | 7.0 | 13.0 | 0.00 | 0.01 | 0.01 | 77 | 1027.2 |
| 20260510145507 | 49 | 360 | 6.0 | 12.0 | 0.00 | 0.01 | 0.01 | 78 | 1027.2 |
| 20260510145007 | 48 | 360 | 7.0 | 13.0 | 0.00 | 0.01 | 0.01 | 78 | 1027.1 |
| 20260510144516 | 48 | 360 | 9.0 | 13.0 | 0.00 | 0.01 | 0.01 | 78 | 1027.1 |
| 20260510144008 | 48 | 360 | 9.0 | 13.0 | 0.00 | 0.01 | 0.01 | 77 | 1027.2 |
| 20260510143506 | 48 | 360 | 9.0 | 12.0 | 0.00 | 0.01 | 0.01 | 78 | 1027.1 |
| 20260510143015 | 48 | 360 | 8.0 | 13.0 | 0.00 | 0.01 | 0.01 | 79 | 1027.0 |
| 20260510142507 | 48 | 360 | 7.0 | 13.0 | 0.00 | 0.01 | 0.01 | 78 | 1027.0 |
| 20260510142010 | 48 | 360 | 8.0 | 11.0 | 0.00 | 0.01 | 0.01 | 78 | 1027.0 |
| 20260510141525 | 48 | 360 | 8.0 | 11.0 | 0.00 | 0.01 | 0.01 | 79 | 1027.0 |
| 20260510141009 | 47 | 360 | 8.0 | 11.0 | 0.00 | 0.01 | 0.01 | 79 | 1027.0 |
| 20260510140506 | 47 | 360 | 7.0 | 11.0 | 0.00 | 0.01 | 0.01 | 80 | 1027.0 |
| 20260510140026 | 47 | 360 | 7.0 | 10.0 | 0.00 | 0.01 | 0.01 | 80 | 1027.0 |
| 20260510135506 | 47 | 360 | 6.0 | 10.0 | 0.00 | 0.01 | 0.01 | 81 | 1027.0 |
| 20260510135007 | 47 | 360 | 7.0 | 11.0 | 0.00 | 0.01 | 0.01 | 81 | 1027.0 |
| 20260510134516 | 47 | 360 | 7.0 | 11.0 | 0.00 | 0.01 | 0.01 | 81 | 1027.0 |
| 20260510134005 | 47 | 360 | 7.0 | 11.0 | 0.00 | 0.01 | 0.01 | 81 | 1027.0 |
| 20260510133506 | 47 | 360 | 7.0 | 10.0 | 0.00 | 0.01 | 0.01 | 81 | 1026.9 |
| 20260510133021 | 47 | 360 | 7.0 | 10.0 | 0.00 | 0.01 | 0.01 | 81 | 1026.9 |
| 20260510132508 | 47 | 360 | 7.0 | 10.0 | 0.00 | 0.01 | 0.01 | 82 | 1026.9 |
| 20260510132009 | 47 | 360 | 5.0 | 9.0 | 0.00 | 0.01 | 0.01 | 83 | 1026.8 |
| 20260510131520 | 47 | 360 | 5.0 | 9.0 | 0.00 | 0.01 | 0.01 | 83 | 1026.7 |
| 20260510131009 | 47 | 360 | 4.0 | 8.0 | 0.00 | 0.01 | 0.01 | 83 | 1026.6 |
| 20260510130507 | 47 | 360 | 4.0 | 6.0 | 0.00 | 0.01 | 0.01 | 84 | 1026.5 |
| 20260510130018 | 47 | 360 | 3.0 | 6.0 | 0.00 | 0.01 | 0.01 | 84 | 1026.5 |
| 20260510125508 | 46 | 360 | 2.0 | 5.0 | 0.00 | 0.01 | 0.01 | 85 | 1026.4 |
| 20260510125007 | 46 | 360 | 3.0 | 5.0 | 0.00 | 0.01 | 0.01 | 85 | 1026.3 |
| 20260510124530 | 46 | 360 | 3.0 | 5.0 | 0.00 | 0.01 | 0.01 | 85 | 1026.3 |
| 20260510124010 | 46 | 360 | 2.0 | 5.0 | 0.00 | 0.01 | 0.01 | 85 | 1026.3 |
| 20260510123510 | 46 | 360 | 2.0 | 6.0 | 0.00 | 0.01 | 0.01 | 84 | 1026.3 |
| 20260510123018 | 46 | 360 | 3.0 | 6.0 | 0.00 | 0.01 | 0.01 | 84 | 1026.2 |
| 20260510122510 | 46 | 360 | 3.0 | 6.0 | 0.00 | 0.01 | 0.01 | 85 | 1026.1 |
| 20260510122010 | 45 | 360 | 4.0 | 6.0 | 0.00 | 0.01 | 0.01 | 85 | 1026.1 |
| 20260510121527 | 45 | 360 | 4.0 | 6.0 | 0.00 | 0.01 | 0.01 | 86 | 1026.1 |
| 20260510121010 | 45 | 360 | 3.0 | 5.0 | 0.00 | 0.01 | 0.01 | 86 | 1026.1 |
| 20260510120508 | 45 | 360 | 2.0 | 4.0 | 0.00 | 0.01 | 0.01 | 86 | 1026.1 |
| 20260510120037 | 45 | 360 | 2.0 | 4.0 | 0.00 | 0.01 | 0.01 | 85 | 1026.1 |
| 20260510115506 | 45 | 360 | 2.0 | 4.0 | 0.00 | 0.01 | 0.01 | 85 | 1026.0 |
| 20260510115006 | 45 | 360 | 2.0 | 4.0 | 0.00 | 0.01 | 0.01 | 85 | 1025.9 |
| 20260510114507 | 45 | 360 | 3.0 | 5.0 | 0.00 | 0.01 | 0.01 | 85 | 1025.9 |
| 20260510114004 | 45 | 360 | 3.0 | 8.0 | 0.00 | 0.01 | 0.01 | 85 | 1026.0 |
| 20260510113506 | 45 | 360 | 4.0 | 8.0 | 0.00 | 0.01 | 0.01 | 85 | 1025.9 |
| 20260510113014 | 45 | 360 | 4.0 | 8.0 | 0.00 | 0.01 | 0.01 | 86 | 1025.9 |
| 20260510112511 | 45 | 360 | 5.0 | 9.0 | 0.00 | 0.01 | 0.01 | 86 | 1025.9 |
| 20260510112003 | 45 | 360 | 6.0 | 9.0 | 0.00 | 0.01 | 0.01 | 86 | 1025.9 |
| 20260510111520 | 45 | 360 | 6.0 | 9.0 | 0.00 | 0.01 | 0.01 | 86 | 1025.9 |
| 20260510111003 | 45 | 360 | 4.0 | 9.0 | 0.01 | 0.01 | 0.01 | 87 | 1025.9 |
| 20260510110505 | 45 | 360 | 4.0 | 8.0 | 0.01 | 0.01 | 0.01 | 87 | 1025.9 |
| 20260510110011 | 45 | 360 | 4.0 | 6.0 | 0.01 | 0.01 | 0.01 | 87 | 1026.1 |
| 20260510105504 | 45 | 360 | 2.0 | 4.0 | 0.01 | 0.01 | 0.01 | 87 | 1026.2 |
| 20260510105004 | 45 | 360 | 0.0 | 4.0 | 0.01 | 0.01 | 0.01 | 86 | 1026.2 |
| 20260510104506 | 45 | 360 | 0.0 | 5.0 | 0.01 | 0.01 | 0.01 | 86 | 1026.3 |
| 20260510104004 | 46 | 360 | 3.0 | 5.0 | 0.01 | 0.01 | 0.01 | 86 | 1026.3 |
| 20260510103504 | 46 | 360 | 3.0 | 5.0 | 0.01 | 0.01 | 0.01 | 85 | 1026.4 |
| 20260510103012 | 46 | 360 | 0.0 | 2.0 | 0.01 | 0.01 | 0.01 | 85 | 1026.5 |
| 20260510102504 | 46 | 360 | 0.0 | 3.0 | 0.01 | 0.01 | 0.01 | 85 | 1026.5 |
| 20260510102007 | 46 | 360 | 0.0 | 3.0 | 0.01 | 0.01 | 0.01 | 85 | 1026.5 |
| 20260510101508 | 46 | 360 | 2.0 | 3.0 | 0.01 | 0.01 | 0.01 | 85 | 1026.5 |
| 20260510101004 | 46 | 360 | 0.0 | 2.0 | 0.00 | 0.00 | 0.00 | 84 | 1026.4 |
| 20260510100503 | 46 | 360 | 0.0 | 3.0 | 0.00 | 0.00 | 0.00 | 84 | 1026.4 |
| 20260510100004 | 46 | 360 | 0.0 | 3.0 | 0.00 | 0.00 | 0.00 | 84 | 1026.4 |
| 20260510095503 | 46 | 360 | 0.0 | 2.0 | 0.00 | 0.00 | 0.00 | 84 | 1026.3 |
| 20260510095003 | 46 | 360 | 0.0 | 0.0 | 0.00 | 0.00 | 0.00 | 84 | 1026.3 |
| 20260510094525 | 46 | 360 | 0.0 | 0.0 | 0.00 | 0.00 | 0.00 | 83 | 1026.3 |
| 20260510094007 | 46 | 360 | 0.0 | 0.0 | 0.00 | 0.00 | 0.00 | 83 | 1026.2 |
| 20260510093504 | 46 | 360 | 0.0 | 0.0 | 0.00 | 0.00 | 0.00 | 83 | 1026.1 |
| 20260510093008 | 46 | 360 | 0.0 | 0.0 | 0.00 | 0.00 | 0.00 | 83 | 1026.1 |
| 20260510092507 | 46 | 360 | 0.0 | 0.0 | 0.00 | 0.00 | 0.00 | 83 | 1026.2 |
| 20260510092007 | 46 | 360 | 0.0 | 2.0 | 0.00 | 0.00 | 0.00 | 83 | 1026.1 |
| 20260510091520 | 47 | 360 | 0.0 | 2.0 | 0.00 | 0.00 | 0.00 | 83 | 1026.0 |
| 20260510091004 | 47 | 360 | 0.0 | 2.0 | 0.00 | 0.00 | 0.00 | 82 | 1025.9 |
| 20260510090504 | 47 | 360 | 0.0 | 2.0 | 0.00 | 0.00 | 0.00 | 81 | 1025.8 |
| 20260510090012 | 47 | 360 | 0.0 | 2.0 | 0.00 | 0.00 | 0.00 | 81 | 1025.7 |
| 20260510085503 | 47 | 360 | 0.0 | 0.0 | 0.00 | 0.00 | 0.00 | 79 | 1025.7 |
| 20260510085006 | 48 | 360 | 0.0 | 0.0 | 0.00 | 0.00 | 0.00 | 79 | 1025.6 |
| 20260510084514 | 48 | 360 | 0.0 | 0.0 | 0.00 | 0.00 | 0.00 | 78 | 1025.5 |
| 20260510084005 | 48 | 360 | 0.0 | 0.0 | 0.00 | 0.00 | 0.00 | 77 | 1025.5 |
| 20260510083509 | 48 | 360 | 0.0 | 0.0 | 0.00 | 0.00 | 0.00 | 77 | 1025.6 |
| 20260510083010 | 48 | 360 | 0.0 | 2.0 | 0.00 | 0.00 | 0.00 | 76 | 1025.6 |
| 20260510082504 | 48 | 360 | 0.0 | 2.0 | 0.00 | 0.00 | 0.00 | 76 | 1025.7 |
| 20260510082005 | 48 | 360 | 0.0 | 4.0 | 0.00 | 0.00 | 0.00 | 76 | 1025.6 |
| 20260510081510 | 48 | 360 | 0.0 | 4.0 | 0.00 | 0.00 | 0.00 | 75 | 1025.6 |
| 20260510081006 | 48 | 360 | 0.0 | 4.0 | 0.00 | 0.00 | 0.00 | 74 | 1025.7 |
| 20260510080506 | 48 | 360 | 2.0 | 4.0 | 0.00 | 0.00 | 0.00 | 73 | 1025.7 |
| 20260510080009 | 48 | 360 | 1.0 | 4.0 | 0.00 | 0.00 | 0.00 | 73 | 1025.7 |
| 20260510075509 | 48 | 360 | 0.0 | 4.0 | 0.00 | 0.00 | 0.00 | 73 | 1025.6 |
| 20260510075004 | 48 | 360 | 2.0 | 4.0 | 0.00 | 0.00 | 0.00 | 72 | 1025.7 |
| 20260510074519 | 49 | 360 | 0.0 | 8.0 | 0.00 | 0.00 | 0.00 | 72 | 1025.7 |
| 20260510074006 | 49 | 360 | 0.0 | 9.0 | 0.00 | 0.00 | 0.00 | 72 | 1025.7 |
| 20260510073507 | 49 | 360 | 5.0 | 14.0 | 0.00 | 0.00 | 0.00 | 71 | 1025.7 |
| 20260510073024 | 49 | 360 | 8.0 | 14.0 | 0.00 | 0.00 | 0.00 | 71 | 1025.7 |
| 20260510072507 | 49 | 360 | 7.0 | 13.0 | 0.00 | 0.00 | 0.00 | 70 | 1025.6 |
| 20260510072010 | 49 | 360 | 5.0 | 15.0 | 0.00 | 0.00 | 0.00 | 70 | 1025.6 |
| 20260510071522 | 49 | 360 | 6.0 | 15.0 | 0.00 | 0.00 | 0.00 | 70 | 1025.5 |
| 20260510071004 | 49 | 17 | 10.0 | 14.0 | 0.00 | 0.00 | 0.00 | 69 | 1025.5 |
| 20260510070506 | 49 | 360 | 6.0 | 17.0 | 0.00 | 0.00 | 0.00 | 68 | 1025.5 |
| 20260510070012 | 49 | 360 | 10.0 | 21.0 | 0.00 | 0.00 | 0.00 | 68 | 1025.7 |
| 20260510065506 | 50 | 360 | 11.0 | 21.0 | 0.00 | 0.00 | 0.00 | 66 | 1025.6 |
| 20260510065006 | 50 | 360 | 9.0 | 17.0 | 0.00 | 0.00 | 0.00 | 68 | 1025.5 |
| 20260510064511 | 50 | 360 | 8.0 | 16.0 | 0.00 | 0.00 | 0.00 | 67 | 1025.5 |
| 20260510064010 | 50 | 360 | 7.0 | 16.0 | 0.00 | 0.00 | 0.00 | 66 | 1025.5 |
| 20260510063510 | 51 | 360 | 10.0 | 16.0 | 0.00 | 0.00 | 0.00 | 66 | 1025.5 |
| 20260510063014 | 51 | 360 | 11.0 | 23.0 | 0.00 | 0.00 | 0.00 | 65 | 1025.5 |
| 20260510062507 | 51 | 360 | 12.0 | 23.0 | 0.00 | 0.00 | 0.00 | 65 | 1025.5 |
| 20260510062007 | 51 | 360 | 11.0 | 22.0 | 0.00 | 0.00 | 0.00 | 64 | 1025.3 |
| 20260510061524 | 51 | 360 | 14.0 | 22.0 | 0.00 | 0.00 | 0.00 | 64 | 1025.1 |
| 20260510061011 | 51 | 360 | 12.0 | 22.0 | 0.00 | 0.00 | 0.00 | 63 | 1024.9 |
| 20260510060507 | 51 | 360 | 12.0 | 23.0 | 0.00 | 0.00 | 0.00 | 62 | 1024.7 |
| 20260510060036 | 52 | 360 | 15.0 | 23.0 | 0.00 | 0.00 | 0.00 | 61 | 1024.7 |
| 20260510055511 | 52 | 360 | 15.0 | 24.0 | 0.00 | 0.00 | 0.00 | 61 | 1024.5 |
| 20260510055012 | 52 | 360 | 15.0 | 24.0 | 0.00 | 0.00 | 0.00 | 61 | 1024.4 |
| 20260510054518 | 52 | 360 | 10.0 | 21.0 | 0.00 | 0.00 | 0.00 | 61 | 1024.3 |
| 20260510054004 | 53 | 360 | 14.0 | 21.0 | 0.00 | 0.00 | 0.00 | 60 | 1024.0 |
| 20260510053504 | 53 | 360 | 12.0 | 18.0 | 0.00 | 0.00 | 0.00 | 60 | 1024.0 |
| 20260510053004 | 53 | 360 | 12.0 | 17.0 | 0.00 | 0.00 | 0.00 | 59 | 1024.0 |
| 20260510052502 | 53 | 360 | 8.0 | 19.0 | 0.00 | 0.00 | 0.00 | 59 | 1024.0 |
| 20260510052002 | 53 | 360 | 8.0 | 21.0 | 0.00 | 0.00 | 0.00 | 59 | 1023.8 |
| 20260510051504 | 54 | 360 | 14.0 | 22.0 | 0.00 | 0.00 | 0.00 | 58 | 1023.4 |
| 20260510051004 | 54 | 360 | 13.0 | 23.0 | 0.00 | 0.00 | 0.00 | 57 | 1023.1 |
| 20260510050504 | 54 | 360 | 15.0 | 25.0 | 0.00 | 0.00 | 0.00 | 57 | 1023.0 |
| 20260510050008 | 54 | 360 | 15.0 | 25.0 | 0.00 | 0.00 | 0.00 | 57 | 1022.9 |
| 20260510045504 | 55 | 360 | 14.0 | 25.0 | 0.00 | 0.00 | 0.00 | 55 | 1022.7 |
| 20260510045002 | 55 | 360 | 13.0 | 25.0 | 0.00 | 0.00 | 0.00 | 55 | 1022.3 |
| 20260510044506 | 55 | 360 | 17.0 | 38.0 | 0.00 | 0.00 | 0.00 | 54 | 1021.8 |
| 20260510044003 | 56 | 360 | 17.0 | 38.0 | 0.00 | 0.00 | 0.00 | 52 | 1021.3 |
| 20260510043503 | 57 | 9 | 22.0 | 39.0 | 0.00 | 0.00 | 0.00 | 50 | 1020.4 |
| 20260510043010 | 58 | 360 | 27.0 | 39.0 | 0.00 | 0.00 | 0.00 | 47 | 1019.6 |
| 20260510042503 | 59 | 17 | 22.0 | 32.0 | 0.00 | 0.00 | 0.00 | 42 | 1019.2 |
| 20260510042006 | 58 | 17 | 12.0 | 18.0 | 0.00 | 0.00 | 0.00 | 41 | 1018.9 |
| 20260510041515 | 58 | 17 | 7.0 | 9.0 | 0.00 | 0.00 | 0.00 | 42 | 1018.3 |
| 20260510041005 | 59 | 17 | 5.0 | 7.0 | 0.00 | 0.00 | 0.00 | 40 | 1018.3 |
| 20260510040503 | 59 | 15 | 3.0 | 7.0 | 0.00 | 0.00 | 0.00 | 39 | 1018.2 |
| 20260510040004 | 59 | 15 | 3.0 | 8.0 | 0.00 | 0.00 | 0.00 | 38 | 1018.0 |
| 20260510035502 | 59 | 14 | 5.0 | 8.0 | 0.00 | 0.00 | 0.00 | 38 | 1017.9 |
| 20260510035002 | 59 | 15 | 5.0 | 8.0 | 0.00 | 0.00 | 0.00 | 39 | 1018.0 |
| 20260510034506 | 60 | 14 | 0.0 | 3.0 | 0.00 | 0.00 | 0.00 | 39 | 1018.0 |
| 20260510034004 | 60 | 15 | 0.0 | 4.0 | 0.00 | 0.00 | 0.00 | 36 | 1017.9 |
| 20260510033504 | 60 | 15 | 2.0 | 4.0 | 0.00 | 0.00 | 0.00 | 35 | 1017.9 |
| 20260510033004 | 60 | 15 | 2.0 | 4.0 | 0.00 | 0.00 | 0.00 | 35 | 1017.9 |
| 20260510032511 | 60 | 15 | 2.0 | 7.0 | 0.00 | 0.00 | 0.00 | 34 | 1017.8 |
| 20260510032006 | 60 | 15 | 3.0 | 7.0 | 0.00 | 0.00 | 0.00 | 35 | 1017.7 |
| 20260510031504 | 61 | 14 | 2.0 | 6.0 | 0.00 | 0.00 | 0.00 | 35 | 1017.5 |
| 20260510031006 | 61 | 14 | 2.0 | 7.0 | 0.00 | 0.00 | 0.00 | 35 | 1017.5 |
| 20260510030502 | 61 | 15 | 4.0 | 9.0 | 0.00 | 0.00 | 0.00 | 33 | 1017.3 |
| 20260510030006 | 61 | 15 | 5.0 | 9.0 | 0.00 | 0.00 | 0.00 | 33 | 1017.3 |
| 20260510025507 | 61 | 14 | 6.0 | 9.0 | 0.00 | 0.00 | 0.00 | 33 | 1017.2 |
| 20260510025005 | 61 | 14 | 6.0 | 9.0 | 0.00 | 0.00 | 0.00 | 34 | 1017.1 |
| 20260510024510 | 61 | 14 | 4.0 | 9.0 | 0.00 | 0.00 | 0.00 | 34 | 1017.1 |
| 20260510024004 | 61 | 15 | 4.0 | 8.0 | 0.00 | 0.00 | 0.00 | 34 | 1017.0 |
| 20260510023503 | 61 | 223 | 5.0 | 8.0 | 0.00 | 0.00 | 0.00 | 33 | 1016.8 |
| 20260510023022 | 61 | 230 | 5.0 | 8.0 | 0.00 | 0.00 | 0.00 | 33 | 1016.7 |
| 20260510022506 | 61 | 232 | 5.0 | 8.0 | 0.00 | 0.00 | 0.00 | 33 | 1016.6 |
| 20260510022008 | 62 | 238 | 4.0 | 8.0 | 0.00 | 0.00 | 0.00 | 32 | 1016.6 |
| 20260510021507 | 63 | 208 | 3.0 | 6.0 | 0.00 | 0.00 | 0.00 | 32 | 1016.7 |
| 20260510021008 | 64 | 158 | 2.0 | 5.0 | 0.00 | 0.00 | 0.00 | 31 | 1016.7 |
| 20260510020511 | 65 | 157 | 2.0 | 6.0 | 0.00 | 0.00 | 0.00 | 28 | 1016.6 |
| 20260510020008 | 65 | 144 | 2.0 | 6.0 | 0.00 | 0.00 | 0.00 | 27 | 1016.5 |
| 20260510015507 | 66 | 124 | 2.0 | 8.0 | 0.00 | 0.00 | 0.00 | 27 | 1016.4 |
| 20260510015006 | 66 | 123 | 3.0 | 14.0 | 0.00 | 0.00 | 0.00 | 26 | 1016.5 |
| 20260510014506 | 66 | 71 | 2.0 | 20.0 | 0.00 | 0.00 | 0.00 | 25 | 1016.4 |
| 20260510014006 | 67 | 51 | 10.0 | 20.0 | 0.00 | 0.00 | 0.00 | 25 | 1016.2 |
| 20260510013509 | 67 | 62 | 9.0 | 15.0 | 0.00 | 0.00 | 0.00 | 24 | 1016.2 |
| 20260510013012 | 68 | 50 | 9.0 | 18.0 | 0.00 | 0.00 | 0.00 | 23 | 1016.2 |
| 20260510012503 | 68 | 51 | 10.0 | 19.0 | 0.00 | 0.00 | 0.00 | 22 | 1016.2 |
| 20260510012004 | 68 | 50 | 9.0 | 19.0 | 0.00 | 0.00 | 0.00 | 22 | 1016.1 |
| 20260510011518 | 68 | 53 | 9.0 | 14.0 | 0.00 | 0.00 | 0.00 | 22 | 1015.9 |
| 20260510011012 | 68 | 37 | 8.0 | 13.0 | 0.00 | 0.00 | 0.00 | 21 | 1015.8 |
| 20260510010506 | 68 | 40 | 3.0 | 15.0 | 0.00 | 0.00 | 0.00 | 21 | 1015.6 |
| 20260510010017 | 68 | 84 | 4.0 | 22.0 | 0.00 | 0.00 | 0.00 | 22 | 1015.4 |
| 20260510005508 | 68 | 59 | 8.0 | 22.0 | 0.00 | 0.00 | 0.00 | 22 | 1015.3 |
| 20260510005007 | 69 | 134 | 9.0 | 20.0 | 0.00 | 0.00 | 0.00 | 22 | 1015.3 |
| 20260510004507 | 69 | 118 | 12.0 | 27.0 | 0.00 | 0.00 | 0.00 | 22 | 1015.3 |
| 20260510004008 | 69 | 355 | 11.0 | 27.0 | 0.00 | 0.00 | 0.00 | 21 | 1015.4 |
| 20260510003504 | 69 | 360 | 15.0 | 26.0 | 0.00 | 0.00 | 0.00 | 20 | 1015.3 |
| 20260510003014 | 70 | 360 | 7.0 | 14.0 | 0.00 | 0.00 | 0.00 | 19 | 1015.0 |
| 20260510002508 | 70 | 360 | 8.0 | 16.0 | 0.00 | 0.00 | 0.00 | 19 | 1014.7 |
| 20260510002003 | 70 | 360 | 12.0 | 19.0 | 0.00 | 0.00 | 0.00 | 19 | 1014.5 |
| 20260510001511 | 70 | 360 | 12.0 | 20.0 | 0.00 | 0.00 | 0.00 | 19 | 1014.4 |
| 20260510001009 | 70 | 360 | 8.0 | 23.0 | 0.00 | 0.00 | 0.00 | 19 | 1014.2 |
| 20260510000509 | 71 | 360 | 13.0 | 23.0 | 0.00 | 0.00 | 0.00 | 19 | 1014.1 |
| 20260510000011 | 71 | 360 | 9.0 | 32.0 | 0.00 | 0.00 | 0.00 | 19 | 1014.1 |
| 20260509235507 | 71 | 360 | 15.0 | 32.0 | 0.00 | 0.00 | 0.00 | 19 | 1013.9 |
| 20260509235007 | 72 | 360 | 20.0 | 29.0 | 0.00 | 0.00 | 0.00 | 19 | 1013.7 |
| 20260509234509 | 73 | 66 | 10.0 | 29.0 | 0.00 | 0.00 | 0.00 | 18 | 1013.7 |
| 20260509234008 | 74 | 92 | 18.0 | 29.0 | 0.00 | 0.00 | 0.00 | 16 | 1013.6 |
| 20260509233505 | 75 | 360 | 14.0 | 23.0 | 0.00 | 0.00 | 0.00 | 15 | 1013.6 |
| 20260509233018 | 75 | 105 | 2.0 | 17.0 | 0.00 | 0.00 | 0.00 | 13 | 1013.5 |
| 20260509232509 | 75 | 132 | 10.0 | 17.0 | 0.00 | 0.00 | 0.00 | 13 | 1013.5 |
| 20260509232008 | 75 | 164 | 7.0 | 16.0 | 0.00 | 0.00 | 0.00 | 15 | 1013.4 |
| 20260509231519 | 75 | 200 | 7.0 | 13.0 | 0.00 | 0.00 | 0.00 | 16 | 1013.3 |
| 20260509231004 | 75 | 78 | 7.0 | 11.0 | 0.00 | 0.00 | 0.00 | 15 | 1013.5 |
| 20260509230504 | 75 | 55 | 5.0 | 11.0 | 0.00 | 0.00 | 0.00 | 16 | 1013.6 |
| 20260509230004 | 75 | 73 | 8.0 | 11.0 | 0.00 | 0.00 | 0.00 | 15 | 1013.5 |
| 20260509225504 | 75 | 348 | 7.0 | 10.0 | 0.00 | 0.00 | 0.00 | 17 | 1013.5 |
| 20260509225004 | 75 | 49 | 5.0 | 11.0 | 0.00 | 0.00 | 0.00 | 16 | 1013.4 |
| 20260509224512 | 76 | 52 | 8.0 | 12.0 | 0.00 | 0.00 | 0.00 | 16 | 1013.3 |
| 20260509224004 | 76 | 57 | 6.0 | 12.0 | 0.00 | 0.00 | 0.00 | 16 | 1013.3 |
| 20260509223511 | 77 | 50 | 7.0 | 11.0 | 0.00 | 0.00 | 0.00 | 15 | 1013.3 |
| 20260509223016 | 77 | 50 | 2.0 | 8.0 | 0.00 | 0.00 | 0.00 | 14 | 1013.3 |
| 20260509222503 | 78 | 94 | 4.0 | 10.0 | 0.00 | 0.00 | 0.00 | 15 | 1013.3 |
| 20260509222007 | 78 | 86 | 3.0 | 10.0 | 0.00 | 0.00 | 0.00 | 14 | 1013.3 |
| 20260509221503 | 79 | 82 | 5.0 | 9.0 | 0.00 | 0.00 | 0.00 | 14 | 1013.3 |
| 20260509221005 | 79 | 40 | 2.0 | 8.0 | 0.00 | 0.00 | 0.00 | 14 | 1013.3 |
| 20260509220504 | 79 | 96 | 5.0 | 8.0 | 0.00 | 0.00 | 0.00 | 14 | 1013.4 |
| 20260509220008 | 78 | 101 | 2.0 | 10.0 | 0.00 | 0.00 | 0.00 | 14 | 1013.4 |
| 20260509215505 | 77 | 40 | 1.0 | 11.0 | 0.00 | 0.00 | 0.00 | 15 | 1013.5 |
| 20260509215005 | 77 | 84 | 3.0 | 11.0 | 0.00 | 0.00 | 0.00 | 15 | 1013.5 |
| 20260509214506 | 77 | 76 | 5.0 | 10.0 | 0.00 | 0.00 | 0.00 | 15 | 1013.6 |
| 20260509214007 | 78 | 55 | 2.0 | 8.0 | 0.00 | 0.00 | 0.00 | 16 | 1013.5 |
| 20260509213508 | 77 | 115 | 0.0 | 7.0 | 0.00 | 0.00 | 0.00 | 16 | 1013.7 |
| 20260509213009 | 77 | 129 | 3.0 | 7.0 | 0.00 | 0.00 | 0.00 | 14 | 1013.6 |
| 20260509212504 | 77 | 90 | 2.0 | 6.0 | 0.00 | 0.00 | 0.00 | 15 | 1013.7 |
| 20260509212011 | 77 | 168 | 3.0 | 6.0 | 0.00 | 0.00 | 0.00 | 15 | 1013.9 |
| 20260509211548 | 77 | 154 | 2.0 | 5.0 | 0.00 | 0.00 | 0.00 | 16 | 1014.1 |
| 20260509211007 | 75 | 360 | 2.0 | 6.0 | 0.00 | 0.00 | 0.00 | 16 | 1014.2 |
| 20260509210504 | 76 | 130 | 1.0 | 6.0 | 0.00 | 0.00 | 0.00 | 16 | 1014.2 |
| 20260509210008 | 76 | 103 | 3.0 | 8.0 | 0.00 | 0.00 | 0.00 | 16 | 1014.2 |
| 20260509205504 | 76 | 102 | 3.0 | 8.0 | 0.00 | 0.00 | 0.00 | 15 | 1014.3 |
| 20260509205007 | 76 | 98 | 2.0 | 6.0 | 0.00 | 0.00 | 0.00 | 15 | 1014.4 |
| 20260509204509 | 76 | 51 | 4.0 | 7.0 | 0.00 | 0.00 | 0.00 | 15 | 1014.5 |
| 20260509204008 | 75 | 61 | 3.0 | 7.0 | 0.00 | 0.00 | 0.00 | 17 | 1014.6 |
| 20260509203506 | 75 | 89 | 4.0 | 10.0 | 0.00 | 0.00 | 0.00 | 16 | 1014.6 |
| 20260509203019 | 75 | 95 | 3.0 | 11.0 | 0.00 | 0.00 | 0.00 | 16 | 1014.7 |
| 20260509202507 | 75 | 102 | 6.0 | 11.0 | 0.00 | 0.00 | 0.00 | 16 | 1014.7 |
| 20260509202007 | 75 | 85 | 7.0 | 13.0 | 0.00 | 0.00 | 0.00 | 17 | 1014.8 |